Location: Six Mile Lake
(44.9000°N, 79.7170°W)
Time: 03:01:14
(UTC-04:00)

AO-92 - Pass Details

Date: 30 June 2022
Orbit: 469 x 481 km, 97.4° (Epoch: 17 August)

Event Time Altitude Azimuth Distance (km) Brightness Sun altitude
Exits shadow 00:27:37 12° 252° (WSW) 1,502 ? -20.8°
Maximum altitude 00:28:33 14° 269° (W) 1,448 ? -20.8°
Drops below altitude 10° 00:30:23 10° 300° (WNW) 1,660 ? -20.9°
Sets 00:33:22 0° 328° (NNW) 2,550 ? -21.0°
